MOST

Last updated on Fri Sep 11 2026 00:03:31 GMT+0000 (Coordinated Universal Time)

1 27843U 03031D 26253.53168771 .00000044 00000+0 40206-4 0 9990 2 27843 98.7082 260.0792 0010053 12.6916 347.4513 14.21337120202836
UTC large
Height (km)
Speed (km/s)
/
Latitude / Longitude
Inclination (degrees)
Orbital Period (minutes)
Azimuth
Elevation
Range (km)
Doppler Factor

Next 0 passes for location: London (51.5072 / 0.1276)

No passes found over London.
MOST